KD0RXN-4 Weather Reports


time (UTC)temp
C
wind
direction
speed
KPH
gust
KPH
rain 1hr
cm
rain 24hr
cm
rain mn
cm
humidity
%
barometer
mb
20260507232527 19 240 0.0 11.3 0.00 0.00 0.00 43 1011.4
20260507232052 19 185 0.0 1.6 0.00 0.00 0.00 43 1011.4
20260507231536 19 251 0.0 1.6 0.00 0.00 0.00 43 1011.4
20260507231024 19 232 0.0 3.2 0.00 0.00 0.00 43 1011.6
20260507230548 19 190 0.0 3.2 0.00 0.00 0.00 44 1011.6
20260507230032 19 182 0.0 8.0 0.00 0.00 0.00 43 1011.6
20260507225537 19 223 1.6 8.0 0.00 0.00 0.00 42 1011.6
20260507225041 19 225 0.0 8.0 0.00 0.00 0.00 44 1011.7
20260507224524 20 238 0.0 3.2 0.00 0.00 0.00 43 1011.8
20260507224049 19 198 0.0 8.0 0.00 0.00 0.00 43 1011.8
20260507223535 19 234 1.6 16.1 0.00 0.00 0.00 42 1011.9
20260507223020 19 215 0.0 16.1 0.00 0.00 0.00 43 1012.0
20260507222529 19 261 0.0 3.2 0.00 0.00 0.00 43 1012.0
20260507222033 19 267 0.0 4.8 0.00 0.00 0.00 43 1012.0
20260507221539 19 184 0.0 3.2 0.00 0.00 0.00 43 1012.0
20260507221044 19 200 0.0 3.2 0.00 0.00 0.00 42 1012.1
20260507220527 19 252 0.0 3.2 0.00 0.00 0.00 42 1012.1
20260507220032 20 196 0.0 3.2 0.00 0.00 0.00 42 1012.1
20260507215537 19 232 0.0 17.7 0.00 0.00 0.00 41 1012.2
20260507215021 20 248 3.2 17.7 0.00 0.00 0.00 41 1012.2
20260507214527 20 215 0.0 6.4 0.00 0.00 0.00 42 1012.1
20260507214032 19 286 0.0 9.7 0.00 0.00 0.00 43 1012.2
20260507213537 18 251 0.0 9.7 0.00 0.00 0.00 43 1012.2
20260507213025 18 219 0.0 4.8 0.00 0.00 0.00 43 1012.4
20260507212550 19 213 0.0 6.4 0.00 0.00 0.00 42 1012.5
20260507212034 19 249 0.0 6.4 0.00 0.00 0.00 42 1012.4
20260507211539 19 263 0.0 1.6 0.00 0.00 0.00 43 1012.4
20260507211044 18 250 0.0 8.0 0.00 0.00 0.00 43 1012.4
20260507210529 18 192 1.6 8.0 0.00 0.00 0.00 42 1012.4
20260507210035 19 221 0.0 4.8 0.00 0.00 0.00 43 1012.5
20260507205520 18 188 1.6 4.8 0.00 0.00 0.00 43 1012.7
20260507205026 19 226 0.0 9.7 0.00 0.00 0.00 41 1012.7
20260507204531 19 195 0.0 3.2 0.00 0.00 0.00 43 1012.7
20260507204036 19 205 0.0 4.8 0.00 0.00 0.00 41 1012.9
20260507203522 19 234 0.0 17.7 0.00 0.00 0.00 43 1012.9
20260507203031 18 267 1.6 9.7 0.00 0.00 0.00 43 1013.1
20260507202537 18 229 1.6 12.9 0.00 0.00 0.00 42 1013.1
20260507202021 18 187 1.6 12.9 0.00 0.00 0.00 42 1013.2
20260507201526 18 206 0.0 4.8 0.00 0.00 0.00 41 1013.2
20260507201031 18 198 0.0 4.8 0.00 0.00 0.00 42 1013.3
20260507200536 18 246 0.0 3.2 0.00 0.00 0.00 43 1013.3
20260507200022 18 175 0.0 6.4 0.00 0.00 0.00 40 1013.4
20260507195527 18 257 0.0 6.4 0.00 0.00 0.00 41 1013.5
20260507195032 18 260 0.0 16.1 0.00 0.00 0.00 41 1013.7
20260507194558 18 200 1.6 16.1 0.00 0.00 0.00 39 1013.7
20260507194023 18 213 1.6 4.8 0.00 0.00 0.00 40 1013.8
20260507193534 18 207 0.0 3.2 0.00 0.00 0.00 41 1013.8
20260507193039 18 200 0.0 6.4 0.00 0.00 0.00 40 1013.9
20260507192542 18 264 0.0 9.7 0.00 0.00 0.00 41 1014.0
20260507192027 18 210 1.6 9.7 0.00 0.00 0.00 40 1014.1
20260507191533 18 234 0.0 6.4 0.00 0.00 0.00 41 1014.1
20260507191036 17 206 0.0 11.3 0.00 0.00 0.00 40 1014.1
20260507190521 18 227 1.6 20.9 0.00 0.00 0.00 40 1014.2
20260507190027 18 283 3.2 20.9 0.00 0.00 0.00 40 1014.1
20260507185533 18 198 1.6 6.4 0.00 0.00 0.00 39 1014.3
20260507185037 18 238 0.0 4.8 0.00 0.00 0.00 40 1014.2
20260507184523 18 244 0.0 11.3 0.00 0.00 0.00 38 1014.2
20260507184033 18 244 1.6 11.3 0.00 0.00 0.00 40 1014.2
20260507183538 17 206 3.2 12.9 0.00 0.00 0.00 39 1014.2
20260507183024 18 199 0.0 3.2 0.00 0.00 0.00 39 1014.2
20260507182528 18 242 0.0 6.4 0.00 0.00 0.00 38 1014.2
20260507182033 18 267 1.6 6.4 0.00 0.00 0.00 38 1014.3
20260507181558 18 242 0.0 6.4 0.00 0.00 0.00 39 1014.4
20260507181022 17 230 0.0 6.4 0.00 0.00 0.00 39 1014.5
20260507180527 17 244 0.0 3.2 0.00 0.00 0.00 38 1014.7
20260507180033 18 232 0.0 6.4 0.00 0.00 0.00 37 1014.7
20260507175537 18 264 0.0 6.4 0.00 0.00 0.00 38 1014.8
20260507175022 17 259 1.6 4.8 0.00 0.00 0.00 39 1014.9
20260507174530 17 247 0.0 6.4 0.00 0.00 0.00 37 1015.0
20260507174037 17 252 0.0 8.0 0.00 0.00 0.00 37 1015.1
20260507173542 17 277 0.0 8.0 0.00 0.00 0.00 37 1015.1
20260507173026 17 227 0.0 4.8 0.00 0.00 0.00 36 1015.2
20260507172531 17 175 1.6 6.4 0.00 0.00 0.00 38 1015.2
20260507172036 17 287 1.6 6.4 0.00 0.00 0.00 39 1015.3
20260507171521 17 204 0.0 6.4 0.00 0.00 0.00 38 1015.4
20260507171028 17 188 1.6 6.4 0.00 0.00 0.00 38 1015.5
20260507170533 16 222 0.0 8.0 0.00 0.00 0.00 38 1015.6
20260507170038 17 128 1.6 8.0 0.00 0.00 0.00 36 1015.7
20260507165524 16 313 0.0 3.2 0.00 0.00 0.00 38 1015.8
20260507165033 16 223 0.0 6.4 0.00 0.00 0.00 37 1015.8
20260507164538 17 270 1.6 6.4 0.00 0.00 0.00 37 1015.9
20260507164045 17 192 0.0 4.8 0.00 0.00 0.00 37 1015.9
20260507163530 17 248 1.6 3.2 0.00 0.00 0.00 39 1015.9
20260507163035 16 237 0.0 1.6 0.00 0.00 0.00 43 1015.9
20260507162522 16 231 0.0 1.6 0.00 0.00 0.00 41 1016.0
20260507162029 16 248 0.0 1.6 0.00 0.00 0.00 41 1016.0
20260507161533 16 215 0.0 3.2 0.00 0.00 0.00 40 1016.0
20260507161036 15 207 0.0 3.2 0.00 0.00 0.00 41 1016.0
20260507160535 16 213 0.0 3.2 0.00 0.00 0.00 40 1016.0
20260507160040 15 234 0.0 17.7 0.00 0.00 0.00 41 1016.0
20260507155528 15 244 0.0 17.7 0.00 0.00 0.00 39 1016.1
20260507155033 15 193 0.0 1.6 0.00 0.00 0.00 43 1016.0
20260507154519 15 221 0.0 1.6 0.00 0.00 0.00 41 1016.1
20260507154024 15 174 0.0 1.6 0.00 0.00 0.00 43 1016.2
20260507153550 15 167 0.0 0.0 0.00 0.00 0.00 44 1016.2
20260507153054 15 211 0.0 3.2 0.00 0.00 0.00 46 1016.3
20260507152600 15 254 0.0 3.2 0.00 0.00 0.00 46 1016.3
20260507152025 15 232 0.0 1.6 0.00 0.00 0.00 46 1016.5
20260507151531 15 190 0.0 3.2 0.00 0.00 0.00 48 1016.5
20260507151036 15 213 0.0 1.6 0.00 0.00 0.00 47 1016.5
20260507150521 14 208 0.0 1.6 0.00 0.00 0.00 47 1016.4
20260507150024 14 263 0.0 0.0 0.00 0.00 0.00 47 1016.4
20260507145529 14 209 0.0 0.0 0.00 0.00 0.00 47 1016.5
20260507145039 14 228 0.0 3.2 0.00 0.00 0.00 46 1016.5
20260507144525 13 232 0.0 3.2 0.00 0.00 0.00 45 1016.6
20260507144031 13 200 0.0 1.6 0.00 0.00 0.00 46 1016.6
20260507143537 13 273 0.0 3.2 0.00 0.00 0.00 48 1016.5
20260507143023 13 226 0.0 1.6 0.00 0.00 0.00 47 1016.5
20260507142548 13 221 0.0 1.6 0.00 0.00 0.00 47 1016.5
20260507142053 13 219 0.0 1.6 0.00 0.00 0.00 48 1016.6
20260507141538 13 196 0.0 1.6 0.00 0.00 0.00 49 1016.6
20260507141044 13 250 0.0 1.6 0.00 0.00 0.00 51 1016.6
20260507140529 12 223 0.0 1.6 0.00 0.00 0.00 53 1016.6
20260507140035 12 223 0.0 0.0 0.00 0.00 0.00 55 1016.7
20260507135521 12 201 0.0 0.0 0.00 0.00 0.00 57 1016.7
20260507135030 12 163 0.0 0.0 0.00 0.00 0.00 57 1016.7
20260507134536 11 194 0.0 0.0 0.00 0.00 0.00 59 1016.7
20260507134023 11 195 0.0 0.0 0.00 0.00 0.00 58 1016.7
20260507133549 11 191 0.0 0.0 0.00 0.00 0.00 60 1016.7
20260507133031 11 192 0.0 0.0 0.00 0.00 0.00 61 1016.8
20260507132536 11 168 0.0 0.0 0.00 0.00 0.00 61 1016.9
20260507132059 10 202 0.0 0.0 0.00 0.00 0.00 61 1016.8
20260507131524 10 180 0.0 0.0 0.00 0.00 0.00 64 1016.9
20260507131027 10 181 0.0 0.0 0.00 0.00 0.00 65 1016.9
20260507130532 10 180 0.0 0.0 0.00 0.00 0.00 66 1016.9
20260507130038 9 180 0.0 0.0 0.00 0.00 0.00 66 1016.9
20260507125523 9 186 0.0 0.0 0.00 0.00 0.00 67 1016.9
20260507125030 8 200 0.0 0.0 0.00 0.00 0.00 68 1016.9
20260507124534 8 200 0.0 0.0 0.00 0.00 0.00 68 1016.9
20260507124019 8 192 0.0 0.0 0.00 0.00 0.00 70 1016.8
20260507123527 8 200 0.0 0.0 0.00 0.00 0.00 72 1016.7
20260507123034 8 212 0.0 0.0 0.00 0.00 0.00 73 1016.7
20260507122520 7 208 0.0 0.0 0.00 0.00 0.00 74 1016.6
20260507122048 7 208 0.0 0.0 0.00 0.00 0.00 77 1016.6
20260507121533 7 215 0.0 0.0 0.00 0.00 0.00 79 1016.6
20260507121039 7 215 0.0 0.0 0.00 0.00 0.00 79 1016.6
20260507120526 7 215 0.0 0.0 0.00 0.00 0.00 80 1016.5
20260507120031 7 216 0.0 0.0 0.00 0.00 0.00 80 1016.5
20260507115542 7 219 0.0 0.0 0.00 0.00 0.00 81 1016.4
20260507115028 7 220 0.0 0.0 0.00 0.00 0.00 80 1016.4
20260507114554 7 227 0.0 0.0 0.00 0.00 0.00 80 1016.4
20260507114039 7 230 0.0 0.0 0.00 0.00 0.00 80 1016.3
20260507113525 7 252 0.0 0.0 0.00 0.00 0.00 80 1016.3
20260507113052 7 252 0.0 0.0 0.00 0.00 0.00 80 1016.2
20260507112535 7 252 0.0 0.0 0.00 0.00 0.00 80 1016.2
20260507112021 7 252 0.0 0.0 0.00 0.00 0.00 80 1016.2
20260507111528 7 254 0.0 0.0 0.00 0.00 0.00 80 1016.2
20260507111035 7 297 0.0 0.0 0.00 0.00 0.00 79 1016.2
20260507110522 7 297 0.0 0.0 0.00 0.00 0.00 79 1016.0
20260507110045 7 297 0.0 0.0 0.00 0.00 0.00 79 1016.1
20260507105530 7 297 0.0 0.0 0.00 0.00 0.00 79 1016.0
20260507105030 7 297 0.0 0.0 0.00 0.00 0.00 78 1016.0
20260507104534 7 297 0.0 0.0 0.00 0.00 0.00 79 1015.8
20260507104020 7 297 0.0 0.0 0.00 0.00 0.00 79 1015.9
20260507103526 7 297 0.0 0.0 0.00 0.00 0.00 79 1016.0
20260507103052 7 297 0.0 0.0 0.00 0.00 0.00 79 1016.0
20260507102537 7 297 0.0 0.0 0.00 0.00 0.00 80 1016.0
20260507102023 7 299 0.0 0.0 0.00 0.00 0.00 80 1016.0
20260507101529 6 299 0.0 0.0 0.00 0.00 0.00 81 1016.0
20260507101035 6 299 0.0 0.0 0.00 0.00 0.00 81 1016.0
20260507100542 6 299 0.0 0.0 0.00 0.00 0.00 82 1015.9
20260507100027 6 299 0.0 0.0 0.00 0.00 0.00 83 1016.1
20260507095532 6 299 0.0 0.0 0.00 0.00 0.00 84 1016.1
20260507095034 6 299 0.0 0.0 0.00 0.00 0.00 84 1016.0
20260507094523 6 299 0.0 0.0 0.00 0.00 0.00 85 1016.1
20260507094029 6 299 0.0 0.0 0.00 0.00 0.00 86 1016.0
20260507093534 6 299 0.0 0.0 0.00 0.00 0.00 86 1016.0
20260507093037 6 299 0.0 0.0 0.00 0.00 0.00 86 1016.1
20260507092521 5 299 0.0 0.0 0.00 0.00 0.00 87 1016.2
20260507092023 5 299 0.0 0.0 0.00 0.00 0.00 87 1016.2
20260507091529 5 299 0.0 0.0 0.00 0.00 0.00 87 1015.9
20260507091031 5 299 0.0 0.0 0.00 0.00 0.00 87 1015.9
20260507090532 5 299 0.0 0.0 0.00 0.00 0.00 87 1016.0
20260507090019 5 299 0.0 0.0 0.00 0.00 0.00 87 1015.9
20260507085528 5 299 0.0 0.0 0.00 0.00 0.00 87 1015.6
20260507085030 5 299 0.0 0.0 0.00 0.00 0.00 86 1015.7
20260507084535 5 299 0.0 0.0 0.00 0.00 0.00 86 1015.8
20260507084020 5 299 0.0 0.0 0.00 0.00 0.00 86 1015.9
20260507083546 5 299 0.0 0.0 0.00 0.00 0.00 85 1015.8
20260507083049 5 299 0.0 0.0 0.00 0.00 0.00 85 1015.8
20260507082554 5 299 0.0 0.0 0.00 0.00 0.00 85 1015.9
20260507082036 5 299 0.0 0.0 0.00 0.00 0.00 85 1015.8
20260507081520 5 299 0.0 0.0 0.00 0.00 0.00 85 1015.9
20260507081023 5 299 0.0 0.0 0.00 0.00 0.00 85 1015.8
20260507080528 5 299 0.0 0.0 0.00 0.00 0.00 85 1015.8
20260507080034 5 299 0.0 0.0 0.00 0.00 0.00 84 1016.0
20260507075520 5 299 0.0 0.0 0.00 0.00 0.00 84 1016.0
20260507075045 5 299 0.0 0.0 0.00 0.00 0.00 84 1016.1
20260507074532 5 299 0.0 0.0 0.00 0.00 0.00 84 1016.1
20260507074036 5 299 0.0 0.0 0.00 0.00 0.00 84 1016.1
20260507073521 5 299 0.0 0.0 0.00 0.00 0.00 84 1016.2
20260507073028 5 299 0.0 0.0 0.00 0.00 0.00 84 1016.3
20260507072533 5 299 0.0 0.0 0.00 0.00 0.00 83 1016.3
20260507072020 5 299 0.0 0.0 0.00 0.00 0.00 83 1016.4
20260507071524 5 299 0.0 0.0 0.00 0.00 0.00 82 1016.6
20260507071029 5 299 0.0 0.0 0.00 0.00 0.00 82 1016.6
20260507070553 5 299 0.0 0.0 0.00 0.00 0.00 82 1016.5
20260507070037 5 299 0.0 0.0 0.00 0.00 0.00 82 1016.5
20260507065542 5 299 0.0 0.0 0.00 0.00 0.00 82 1016.5
20260507065027 5 299 0.0 0.0 0.00 0.00 0.00 81 1016.5
20260507064537 5 299 0.0 0.0 0.00 0.00 0.00 81 1016.5
20260507064022 5 299 0.0 0.0 0.00 0.00 0.00 81 1016.5
20260507063527 5 299 0.0 0.0 0.00 0.00 0.00 81 1016.5
20260507063034 5 299 0.0 0.0 0.00 0.00 0.00 80 1016.5
20260507062538 6 299 0.0 0.0 0.00 0.00 0.00 81 1016.5
20260507062022 6 299 0.0 0.0 0.00 0.00 0.00 81 1016.5
20260507061527 6 299 0.0 0.0 0.00 0.00 0.00 80 1016.5
20260507061033 6 299 0.0 0.0 0.00 0.00 0.00 80 1016.6
20260507060519 6 299 0.0 0.0 0.00 0.00 0.00 80 1016.5
20260507060025 6 299 0.0 0.0 0.00 0.00 0.00 80 1016.5
20260507055534 6 299 0.0 0.0 0.00 0.00 0.00 80 1016.4
20260507055058 6 299 0.0 0.0 0.00 0.00 0.00 80 1016.5
20260507054522 6 299 0.0 0.0 0.00 0.00 0.00 79 1016.5
20260507054047 6 299 0.0 0.0 0.00 0.00 0.00 78 1016.6
20260507053532 6 299 0.0 0.0 0.00 0.00 0.00 78 1016.7
20260507053037 6 299 0.0 0.0 0.00 0.00 0.00 77 1016.7
20260507052523 6 299 0.0 0.0 0.00 0.00 0.00 76 1016.6
20260507052029 7 299 0.0 0.0 0.00 0.00 0.00 76 1016.6
20260507051554 7 299 0.0 0.0 0.00 0.00 0.00 76 1016.6
20260507051038 7 299 0.0 0.0 0.00 0.00 0.00 75 1016.5
20260507050524 7 299 0.0 0.0 0.00 0.00 0.00 75 1016.4
20260507050029 7 299 0.0 0.0 0.00 0.00 0.00 74 1016.5
20260507045555 7 299 0.0 0.0 0.00 0.00 0.00 73 1016.5
20260507045022 7 299 0.0 0.0 0.00 0.00 0.00 72 1016.5
20260507044527 7 299 0.0 0.0 0.00 0.00 0.00 73 1016.4
20260507044052 8 299 0.0 0.0 0.00 0.00 0.00 73 1016.4
20260507043536 7 299 0.0 0.0 0.00 0.00 0.00 73 1016.4
20260507043041 7 299 0.0 0.0 0.00 0.00 0.00 71 1016.4
20260507042546 8 299 0.0 0.0 0.00 0.03 0.00 70 1016.4
20260507042030 8 299 0.0 0.0 0.00 0.03 0.00 69 1016.3
20260507041536 8 299 0.0 0.0 0.00 0.03 0.00 69 1016.4
20260507041021 8 299 0.0 0.0 0.00 0.03 0.00 68 1016.4
20260507040527 8 299 0.0 0.0 0.00 0.03 0.00 68 1016.3
20260507040033 8 299 0.0 0.0 0.00 0.03 0.00 67 1016.3
20260507035539 8 299 0.0 0.0 0.00 0.03 0.00 67 1016.4
20260507035024 8 299 0.0 0.0 0.00 0.03 0.00 66 1016.3
20260507034533 8 299 0.0 0.0 0.00 0.03 0.00 65 1016.3
20260507034039 9 299 0.0 0.0 0.00 0.03 0.00 65 1016.3
20260507033523 9 299 0.0 0.0 0.00 0.03 0.00 64 1016.2
20260507033028 9 299 0.0 0.0 0.00 0.03 0.00 64 1016.3
20260507032533 10 299 0.0 0.0 0.00 0.03 0.00 64 1016.3
20260507032019 10 300 0.0 0.0 0.00 0.03 0.00 62 1016.3
20260507031525 10 300 0.0 0.0 0.00 0.03 0.00 61 1016.3
20260507031030 10 300 0.0 0.0 0.00 0.03 0.00 59 1016.3
20260507030555 10 299 0.0 0.0 0.00 0.03 0.00 58 1016.2
20260507030039 10 299 0.0 0.0 0.00 0.03 0.00 58 1016.2
20260507025543 10 300 0.0 0.0 0.00 0.03 0.00 58 1016.2
20260507025026 10 300 0.0 0.0 0.00 0.03 0.00 57 1016.2
20260507024531 10 300 0.0 0.0 0.00 0.03 0.00 57 1016.2
20260507024020 10 54 0.0 0.0 0.00 0.03 0.00 56 1016.0
20260507023527 10 54 0.0 0.0 0.00 0.03 0.00 55 1016.0
20260507023052 11 54 0.0 0.0 0.00 0.03 0.00 55 1016.0
20260507022537 11 54 0.0 0.0 0.00 0.03 0.00 54 1015.9
20260507022022 11 54 0.0 0.0 0.00 0.03 0.00 54 1015.9
20260507021527 11 54 0.0 0.0 0.00 0.03 0.00 54 1015.8
20260507021032 11 54 0.0 0.0 0.00 0.03 0.00 53 1015.8
20260507020537 11 54 0.0 0.0 0.00 0.03 0.00 53 1015.6
20260507020021 11 55 0.0 0.0 0.00 0.03 0.00 51 1015.6
20260507015527 12 55 0.0 0.0 0.00 0.03 0.00 51 1015.5
20260507015032 12 55 0.0 0.0 0.00 0.03 0.00 50 1015.5
20260507014521 12 55 0.0 0.0 0.00 0.03 0.00 50 1015.5
20260507014046 12 55 0.0 0.0 0.00 0.03 0.00 49 1015.5
20260507013529 12 55 0.0 0.0 0.00 0.03 0.00 48 1015.5
20260507013034 13 55 0.0 0.0 0.00 0.03 0.00 47 1015.4
20260507012520 13 61 0.0 0.0 0.00 0.03 0.00 46 1015.4
20260507012026 13 61 0.0 0.0 0.00 0.03 0.00 46 1015.4
20260507011533 13 66 0.0 0.0 0.00 0.03 0.00 45 1015.4
20260507011019 13 11 0.0 0.0 0.00 0.03 0.00 44 1015.3
20260507010525 13 323 0.0 0.0 0.00 0.03 0.00 45 1015.2
20260507010052 14 323 0.0 0.0 0.00 0.03 0.00 44 1015.2
20260507005534 14 350 0.0 0.0 0.00 0.03 0.00 42 1015.0
20260507005023 14 28 0.0 0.0 0.00 0.03 0.00 43 1015.0
20260507004548 14 22 0.0 0.0 0.00 0.03 0.00 43 1014.9
20260507004033 14 27 0.0 1.6 0.00 0.03 0.00 44 1014.8
20260507003537 15 355 0.0 1.6 0.00 0.03 0.00 43 1014.7
20260507003041 15 17 0.0 1.6 0.00 0.03 0.00 43 1014.6
20260507002545 15 57 0.0 1.6 0.00 0.05 0.00 42 1014.5
20260507002049 15 53 0.0 0.0 0.00 0.05 0.00 42 1014.4
20260507001533 15 285 0.0 0.0 0.00 0.05 0.00 41 1014.3
20260507001057 15 348 0.0 1.6 0.00 0.05 0.00 41 1014.3
20260507000542 15 30 0.0 0.0 0.00 0.05 0.00 41 1014.2
20260507000045 15 275 0.0 0.0 0.00 0.05 0.00 42 1014.2
20260506235529 16 37 0.0 0.0 0.00 0.05 0.00 41 1014.1
20260506235034 16 291 0.0 0.0 0.00 0.05 0.00 40 1014.2
20260506234521 16 38 0.0 1.6 0.00 0.05 0.00 39 1014.1
20260506234026 16 69 0.0 1.6 0.00 0.05 0.00 39 1014.2
20260506233531 16 279 0.0 1.6 0.00 0.05 0.00 39 1014.2
20260506233020 16 39 0.0 1.6 0.00 0.05 0.00 37 1014.3